Уичито

США     37°40′10″N   97°20′36″W
темп.,
°C
ветер,
м/с
пор.,
м/с
влажн.,
%
обл.,
%
осадки,
мм/ч
давл.,
гПа
погр.,
м
15 мая, сб
сб1501:00+15ю41395100 3.6 1018617
04:00+15ююв51396100 2.4 1017661
07:00+15ю51197100 5.2 1016609
10:00+17ююз61291100 0.3 1017670
13:00+20ююз3476100 0.4 1016812
16:00+24ю445369 0.0 10141369
19:00+22ююв467744 0.1 1013628
22:00+18юв5119473 4.5 1014354
16 мая, вс
вс1601:00+18ю41197100 13.7 1014465
04:00+17ююв41298100 7.9 1014553
07:00+17ююв41298100 11.1 1013614
10:00+18ю61296100 1.5 1014741
13:00+21ю71083100 1.9 1013932
16:00+19ю71085100 1.5 1012893
19:00+16юв61195100 2.4 1011569
22:00+16юв3898100 0.6 1012368
17 мая, пн
пн1701:00+17ююв3899100 1.9 1010458
04:00+17ююв3698100 0.1 1010355
07:00+17юз1199100 0.7 1011102
10:00+19вюв2289100 1.4 1012479
13:00+22вюв3375100 1.6 1011880
16:00+23вюв346799 0.1 10101155
19:00+22вюв358369 0.6 1010485
22:00+19всв3797100 0.3 1010193
18 мая, вт
вт1801:00+18вюв2699100 1.0 1010342
04:00+16всв61294100 4.2 1008263
07:00+16в379587 4.2 1009206
10:00+20юв5987100 0.3 1010715
13:00+20ююв61393100 1.9 1010890
16:00+18ююв81495100 4.0 1010574
19:00+19ююв49899 5.9 1008369
22:00+17юв41098100 0.0 1011443
19 мая, ср
ср1901:00+17ююв51297100 0.1 1011631
04:00+16ююв379880 0.0 1010332
07:00+15ю379734 0.1 1012273
10:00+18ююв478230 0.4 1013452
13:00+22ю6768100 0.4 10131223
16:00+21ююв587976 0.2 1013831
19:00+22ююв4107780 0.4 1012930
22:00+19ююв61388100 0.1 1013671